User: anonymous   Login
Location: Drocourt
(49.0571°N, 1.7669°E)
Time: 23:34:01
(UTC+00:00)
Language:

Transit 2A Rocket - Orbit

View from above orbital plane
View from above orbital plane
View from above satellite
View from above satellite

Ground track
Ground track

The orbit data is extracted from the following two-line orbital elements,

1 00047U 60007C   24107.45822060  .00002063  00000-0  47261-3 0  9999
2 00047  66.6677  11.9052 0224376 357.2370   2.7476 14.43457215336453
Epoch (UTC): 16 April 2024 10:59:50
Eccentricity: 0.0224376
inclination: 66.6677°
perigee height: 587 km
apogee height: 907 km
right ascension of ascending node: 11.9052°
argument of perigee: 357.2370°
revolutions per day: 14.43457215
mean anomaly at epoch: 2.7476°
orbit number at epoch: 33645

The dashed part of the orbit path shows where the satellite is in the earth's shadow,  

DLR